Other Public Products
Issued by NWS Grand Forks, ND

Home | Current Version | Previous Version | Text Only | Print | Product List | Glossary On
Versions: 1 2 3 4 5 6 7 8 9 10 11 12 13 14 15 16 17 18 19 20 21 22 23 24 25 26 27 28 29 30 31 32 33 34 35 36 37 38 39 40 41 42 43 44 45 46 47 48 49 50
000
FPUS83 KFGF 251110
OPUFGF
PRAIRIE TO PINES WEATHER ROUNDUP
NATIONAL WEATHER SERVICE EASTERN NORTH DAKOTA/GRAND FORKS ND
600 AM CDT SUN JUN 25 2017

 **SATELLITE DATA USED TO AUGMENT SKY COVER AT AUTOMATED STATIONS**
 *****  WEATHER ACROSS EASTERN NORTH DAKOTA  *****

CITY           SKY/WX    TMP DP  RH WIND       PRES   REMARKS
GRAND FORKS    FAIR      41  40  96 W7        30.20R
GRAND FORKS AF FAIR      42  39  89 NW6       30.21R
GRAND CITY NWS NOT AVBL
BUXTON         NOT AVBL
DEVILS LAKE    FAIR      44  42  93 NW6       30.25R
FARGO          FAIR      45  42  89 NW8       30.21R
WAHPETON ARPT  FAIR      43  37  81 NW5       30.22R
$$

 *****  WEATHER ACROSS CENTRAL AND WESTERN NORTH DAKOTA  *****

CITY           SKY/WX    TMP DP  RH WIND       PRES   REMARKS
JAMESTOWN      FAIR      45  43  93 W7        30.24R
BISMARCK       MOCLDY    45  39  79 CALM      30.29R
MINOT          CLOUDY    50  44  80 CALM      30.24S
MINOT AFB      MOCLDY    48  43  82 CALM      30.24R
GARRISON         N/A     46  42  86 W5        30.26R
WILLISTON      MOCLDY    52  41  66 CALM      30.26S
DICKINSON      FAIR      42  33  70 S7        30.26F
HETTINGER      FAIR      42  32  67 SW6       30.32S
$$

 *****  OTHER OBSERVATIONS NORTHEAST NORTH DAKOTA  *****

CITY           SKY/WX    TMP DP  RH WIND       PRES   REMARKS
WALHALLA       NOT AVBL
LANGDON        FAIR      39  39 100 NW6       30.23R
CAVALIER       NOT AVBL
GRAFTON        FAIR      45  43  93 NW8       30.23R
CANDO          NOT AVBL
FORT TOTTEN      N/A     42  42 100 CALM      29.95S
ROLLA            N/A     43  43 100 W10       30.24S
RUGBY          NOT AVBL
 ***** THE ABOVE OBSERVATIONS ARE NON NWS ARE NOT QUALITY
        CONTROLLED AND MAY MIS-REPORT RAIN FOR SNOW...
$$

 *****  OTHER OBSERVATIONS SOUTHEAST NORTH DAKOTA *****

CITY           SKY/WX    TMP DP  RH WIND       PRES   REMARKS
COOPERSTOWN    FAIR      43  43 100 W7        30.25R
VALLEY CITY    FAIR      41  43 100 NW8       30.26R
OAKES          NOT AVBL
GWINNER        SUNNY     46  45  93 NW8       30.24R
SHEYENNE NWR     N/A     44  44  99 NW5       29.95S
BUFFALO        NOT AVBL
WYNDMERE       NOT AVBL
 ***** THE ABOVE OBSERVATIONS ARE NON NWS ARE NOT QUALITY
       CONTROLLED AND MAY MIS-REPORT RAIN FOR SNOW...
$$

  *****  WEATHER ACROSS NORTHERN MINNESOTA  *****

CITY           SKY/WX    TMP DP  RH WIND       PRES   REMARKS
FLAG ISLAND    CLOUDY    54  48  82 NW14      30.12R
WARROAD        CLOUDY    48  45  87 NW6       30.15R
ROSEAU         FAIR      45  39  81 NW6       30.16R
HALLOCK        FAIR      39  39 100 NW7       30.20R
THF RVR FALLS  FAIR      44  42  93 NW10      30.19R
HALSTAD        NOT AVBL
FOSSTON        MOCLDY    46  45  93 NW8       30.17R
BAUDETTE       CLOUDY    50  48  93 N6        30.12R
WASKISH        RAIN      48  46  93 N10G16    30.12R
CROOKSTON      FAIR      41  39  93 NW5       30.21R
$$
  *****  WEATHER ACROSS CENTRAL AND WEST MINNESOTA  *****

CITY           SKY/WX    TMP DP  RH WIND       PRES   REMARKS
BEMIDJI        CLOUDY    48  47  94 NW10      30.13R
PARK RAPIDS    CLOUDY    51  45  79 NW18G25   30.13R
WADENA         CLOUDY    48  46  93 NW10G17   30.14R
DETROIT LAKES  CLOUDY    46  45  93 NW12      30.19R
MOORHEAD       FAIR      45  41  87 NW7       30.22R
FERGUS FALLS   FAIR      45  43  93 NW9       30.19R
ELBOW LAKE     FAIR      46  43  88 W14       30.20R
MORRIS MN      FAIR      48  43  81 NW10      30.19R
STAPLES        CLOUDY    50  46  87 NW14      30.12R
WHEATON        FAIR      48  41  76 W9        30.24R
$$
  *****  WEATHER ELSEWHERE ACROSS MINNESOTA  *****

CITY           SKY/WX    TMP DP  RH WIND       PRES   REMARKS
DULUTH         CLOUDY    52  51  97 NW5       30.01R
INTRNTL FALLS  LGT RAIN  51  49  92 N13       30.07R
ELY            CLOUDY    52  52 100 CALM      30.01R
CLOQUET        DRIZZLE   52  48  87 NW5       30.03R
BRAINERD       LGT RAIN  52  49  89 NW18      30.09R
HIBBING        CLOUDY    52  51  97 NW6       30.03R
ALEXANDRIA     MOCLDY    50  45  83 NW17      30.17R
SAINT CLOUD    CLOUDY    51  50  96 W12G18    30.11R
MINNEAPOLIS    CLOUDY    55  48  77 NW17      30.10R
$$

  *****  WEATHER ACROSS SOUTH DAKOTA  *****

CITY           SKY/WX    TMP DP  RH WIND       PRES   REMARKS
SIOUX FALLS    FAIR      47  45  93 W8        30.27R
BROOKINGS      CLOUDY    48  45  89 NW8       30.26R
WATERTOWN      FAIR      49  47  93 NW9       30.24R
HURON          FAIR      45  42  89 W10       30.30R
SISSETON         N/A     46  41  82 NW7       30.23R
ABERDEEN       FAIR      43  41  93 W5        30.28R
MITCHELL       NOT AVBL
PIERRE         NOT AVBL
MOBRIDGE       FAIR      41  36  82 N3        30.28R
RAPID CITY     MOCLDY    46  33  60 CALM      30.36S
$$

  *****  SOME WEATHER IN NEARBY STATES *****

CITY           SKY/WX    TMP DP  RH WIND       PRES   REMARKS
GLASGOW MT     FAIR      45  34  65 N3        30.25S
GREAT FALLS MT FAIR      47  40  76 CALM      30.32S
CHEYENNE WY    MOCLDY    52  40  63 N9        30.40R
SCOTTSBLUFF NE LGT RAIN  56  36  47 E13       30.37S
OMAHA NE       FAIR      52  44  74 N5        30.28R
DES MOINES IA  MOCLDY    51  45  79 W5        30.21R
DAVENPORT IA   FAIR      52  49  89 W7        30.15R
CHICAGO IL     FAIR      55  48  77 W8        30.07R
EAU CLAIRE WI  MOCLDY    50  48  93 W3        30.05R
LA CROSSE WI   FAIR      58  49  72 W8        30.08R
$$

  *****  SOME NATIONAL WEATHER *****

CITY           SKY/WX    TMP DP  RH WIND       PRES   REMARKS
LA GUARDIA NY  FAIR      73  61  65 CALM      29.97R
RALEIGH NC     PTSUNNY   70  70 100 SW3       30.05R
ATLANTA GA     MOCLDY    68  65  90 NW8       30.10R
NEW ORLEANS LA MOCLDY    74  74 100 CALM      30.09R
OKLAHOMA CITY  FAIR      65  56  72 SE6       30.25S
ALBUQUERQUE NM FAIR      67  55  65 E9        30.28S
SALT LAKE CITY FAIR      65  42  43 CALM      30.16R
LOS ANGELES CA FAIR      63  61  93 W3        29.86S
BOISE ID       FAIR      62  40  44 S7        30.09S
SEATTLE WA     FAIR      69  47  45 N12       29.95S
$$

*** WEATHER ACROSS MANITOBA...SASKATCHEWAN AND ONTARIO ***
                ***ONTARIO***

CITY           SKY/WX    TMP DP  RH WIND       PRES   REMARKS
GERALDTON      LGT RAIN  46  45  93 N5        30.03R
THUNDER BAY    MOCLDY    52  50  93 CALM      29.97R
SIOUX LOOKOUT  CLOUDY    48  43  81 VRB3      30.07R
TORONTO        MOSUNNY   61  55  82 W7        29.92S
BIG TROUT LK   CLOUDY    46  43  87 E2        30.05R
PICKLE LAKE    MOCLDY    46  43  87 NW2       30.08
DRYDEN         CLOUDY    46  45  93 N8        30.08R
KENORA         MOCLDY    48  45  87 N6        30.12R
$$
                *** MANITOBA***

CITY           SKY/WX    TMP DP  RH WIND       PRES   REMARKS
BRANDON        PTCLDY    41  41 100 N5        30.24S
DAUPHIN        CLEAR     41  41 100 W8        30.24R
ISLAND LAKE    PTCLDY    50  43  76 W6        30.11R
PILOT MOUND      N/A     37  37 100 NW3         N/A
THE PAS        PTCLDY    48  43  81 NW5       30.21S
THOMPSON       MOCLDY    46  39  76 W3        30.10S
WINNIPEG       PTCLDY    39  39 100 NW7       30.20R
LYNN LAKE      CLOUDY    50  41  71 W9        30.16S
CHURCHILL      PTSUNNY   46  45  93 N15       29.98R
GILLAM         MOCLDY    48  41  76 W9        30.04S
$$
                ***SASKATCHEWAN***

CITY           SKY/WX    TMP DP  RH WIND       PRES   REMARKS
ESTEVAN        MOCLDY    46  45  93 N7        30.25R
KINDERSLEY     PTCLDY    41  41 100 VRB2      30.27
LLOYDMINSTER   CLEAR     43  43 100 CALM      30.28R
PRINCE ALBERT  PTCLDY    41  41 100 CALM      30.29R
REGINA         LGT RAIN  48  46  93 SW2       30.26S
YORKTON        CLEAR     43  41  93 CALM      30.26S FO


USA.gov is the U.S. government's official web portal to all federal, state and local government web resources and services.